Camp Century

KL  EN  DA
ASIAQ
Weather Now GREENLAND SURVEY
Updated [WGT/WGST] Temperature [°C] Wind [m/s] Air pressure [hPa] Relative humidity [%] Precipitation [mm]
Present Wind chill Speed Max
24.09 03:00-21,00,03,5 ⇑n/a80278n/a
24.09 02:00-21,00,03,5 ⇑n/a80277n/a
24.09 01:00-21,10,03,5 ⇑n/a80278n/a
24.09 00:00-21,20,03,2 ⇑n/a80378n/a
23.09 23:00-21,30,03,3 ⇑n/a80378n/a
23.09 22:00-21,40,03,5 ⇑n/a80278n/a
23.09 21:00-21,40,03,8 ⇑n/a80278n/a
23.09 20:00-21,40,03,8 ⇑n/a80278n/a
23.09 19:00-21,20,04,3 ⇑n/a80277n/a
23.09 18:00-21,00,04,1 ⇑n/a80275n/a
23.09 17:00-21,00,04,2 ⇑n/a80175n/a
23.09 16:00-21,20,04,3 ⇑n/a80174n/a
23.09 15:00-21,60,04,2 ⇑n/a80174n/a
23.09 14:00-22,30,04,1 ⇖n/a80173n/a
23.09 13:00-23,00,04,2 ⇖n/a80074n/a
23.09 12:00-24,10,04,7 ⇖n/a80075n/a
23.09 11:00-25,40,04,8 ⇖n/a80075n/a
23.09 10:00-26,60,04,9 ⇖n/a80075n/a
23.09 09:00-28,10,05,3 ⇖n/a79975n/a
23.09 08:00-29,10,04,9 ⇖n/a79974n/a
23.09 07:00-30,00,05,5 ⇖n/a79974n/a
23.09 06:00-29,80,04,9 ⇖n/a79973n/a
23.09 05:00-28,00,04,5 ⇖n/a79975n/a
23.09 04:00-28,90,05,1 ⇖n/a79874n/a
23.09 03:00-29,90,06,2 ⇖n/a79872n/a
Position: (77.13,-61.03)

[Back]